Overview Statistics Trail Chart Weather Telemetry Raw packets
 

This is the latest recevied weather packets stored in our database for station/object KB4RFE. If no packets are shown the sender has not sent any weather packets the latest 10 day(s).

<< 40 41 42 43 44 45 46 >>
Time Temp. Humidity Pressure Rain* Wind** Luminosity Snow
1788353895 26.67° C 98% 1021.6 hPa 0 mm - 58 W/m² -
1788353592 26.11° C 99% 1021.6 hPa 0 mm - 56 W/m² -
1788353288 26.11° C 99% 1021.5 hPa 0 mm - 55 W/m² -
1788352984 26.11° C 99% 1021.4 hPa 0 mm - 53 W/m² -
1788352683 26.11° C 99% 1021.6 hPa 0 mm - 74 W/m² -
1788352380 25.56° C 99% 1021.4 hPa 0 mm - 68 W/m² -
1788352078 25.56° C 99% 1021.6 hPa 0 mm - 51 W/m² -
1788351788 25.56° C 99% 1021.6 hPa 0 mm - 48 W/m² -
1788351474 25.56° C 99% 1021.4 hPa 0 mm - 46 W/m² -
1788351169 25.56° C 99% 1021.5 hPa 0 mm - 44 W/m² -
1788350865 25.56° C 99% 1021.6 hPa 0 mm - 42 W/m² -
1788350562 25° C 99% 1021.5 hPa 0 mm - 49 W/m² -
1788350261 25° C 99% 1021.5 hPa 0 mm - 38 W/m² -
1788349958 25° C 99% 1021.6 hPa 0 mm - 36 W/m² -
1788349654 25° C 99% 1021.6 hPa 0 mm - 34 W/m² -
1788349350 25° C 99% 1021.6 hPa 0 mm - 32 W/m² -
1788349049 25° C 99% 1021.3 hPa 0 mm - 29 W/m² -
1788348745 24.44° C 99% 1021.4 hPa 0.51 mm - 26 W/m² -
1788348444 24.44° C 98% 1021.5 hPa 0.51 mm - 23 W/m² -
1788348142 24.44° C 98% 1021.4 hPa 0 mm - 18 W/m² -
1788347837 24.44° C 98% 1021.4 hPa 0.51 mm - 15 W/m² -
1788347533 24.44° C 98% 1021.3 hPa 0.51 mm - 12 W/m² -
1788347228 24.44° C 98% 1021.2 hPa 0 mm - 6 W/m² -
1788346924 24.44° C 98% 1021.1 hPa 0 mm - 6 W/m² -
1788346623 24.44° C 98% 1021.1 hPa 0 mm - 3 W/m² -

* Rain latest hour (hover to see other rain measurements)
** Current wind speed in m/s (hover to see current wind gust speed)